Weather in Dubrovnoye

Russia / Tyumen Oblast     57°57′09″N   69°25′48″E
temp.,
°C
wind,
m/s
gust,
m/s
humid.,
%
clouds,
%
prec.,
mm/h
press.,
hPa
HPBL,
m
18 october, mon
mon1823:00+4ssw310795 0.0 1018242
02:00+3ssw39815 0.0 1018205
05:00+2ssw298241 0.0 1018192
08:00+2sw288188 0.0 1018220
11:00+7sw376198 0.0 1018379
14:00+10ssw3854100 0.0 1018624
17:00+8ssw3862100 0.1 1017348
20:00+7s31170100 0.0 1016330
19 october, tue
tue1923:00+7sse2977100 0.0 1015244
02:00+7ssw3871100 0.0 1015233
05:00+6ssw397299 0.0 1015218
08:00+6s2972100 0.0 1014224
11:00+10ssw41252100 0.0 1013488
14:00+13ssw51346100 0.0 1012860
17:00+12ssw51247100 0.0 1011622
20:00+10ssw41255100 0.0 1011530
20 october, wed
wed2023:00+10ssw41155100 0.0 1010476
02:00+8s2866100 0.0 1010213
05:00+6s227487 0.0 100930
08:00+6s127399 0.0 100940
11:00+9s1259100 0.0 1008262
14:00+11sse015198 0.0 1008550
17:00+7ne226698 0.0 100817
20:00+5ene2376100 0.0 100753
21 october, thu
thu2123:00+4ne2279100 0.0 100626
02:00+4ene2379100 0.0 100558
05:00+3ene2279100 0.0 100334
08:00+4ene1273100 0.0 100254
11:00+7nne1159100 0.0 1002238
14:00+8nnw225771 0.0 1002436
17:00+5n377880 0.0 1003195
20:00+4n3886100 0.0 1004391
22 october, fri
fri2223:00+4nne3784100 0.1 1004426
02:00+2n3695100 0.9 1003365
05:00+2nne2698100 2.3 1002241
08:00+2wsw1299100 1.1 1002192
11:00+2sw2599100 1.3 1002316
14:00+3ssw4683100 0.1 1001681
17:00+3ssw41075100 0.1 999750
20:00+2ssw51284100 0.2 997974